SATCOM 3 DEB, 32989

Orbit data source: Space-Track

SATCOM 3 DEB, 32989 is space debris in HEO originally from a launch on Fri, 07 Dec 1979 UTC launched from the Air Force Eastern Test Range (AFETR). Debris objects in space refer to the collection of defunct objects orbiting the Earth. Examples of debris include non-operational satellites, rocket bodies, and fragments generated from explosions, collisions, or faulty payload assembly.

Loading next visibility...
Identifier
32989, 1979-101Q
Orbit
HEO
Country
Flag of USUS
Related business
Manufacturer
Unknown
Mission
Spacecraft
Bus & Motor
Unknown
Mass
Unknown
Launch date (UTC)
1979-12-07 (47 years ago)
Launch vehicle
Unknown
Launch site
Air Force Eastern Test Range (AFETR)
Object type
Payload
Rocket body
Debris
Shape & HBR
Unknown shape, 1.1 m
Radar Cross Section
Medium (>0.1 m² and <1 m²)

Expand to show TLE details & history
Last TLE update: 1 month ago

TLE from 1 month ago
0 SATCOM 3 DEB
1 32989U 79101Q   26141.01919740 -.00000154  00000-0  00000-0 0  9995
2 32989   9.9308  48.0890 4782092 171.5895   0.3319  1.85700959124400
Epoch: 2026-05-21T00:27Z
TLE epoch observation values (Epoch: 2026-05-21T00:27:38.655Z)
Latitude
1.30492°
Longitude
-24.99072°
Altitude
8,190.926 km
Speed
6.361 km/s
True Right ascension
14h 42m 21s
True Declination
1° 18' 04"
Sunlit
Object was in daylight at epoch
Visualization orbit readout
Latitude
Unknown
Longitude
Unknown
Altitude
Unknown
Speed
Unknown
Apparent Right ascension
Unknown
Apparent Declination
Unknown
Sunlit
N/A
Visualization observer readout
Local Sidereal Time
23:20:38
Azimuth
Unknown
Elevation
Unknown
Doppler factor
Unknown
Orbital elements
Apogee altitude
34,954.815 km
Perigee altitude
8,211.918 km
Semi-major axis
27,961.503 km
Eccentricity
0.47821
Inclination
9.9308°
RAAN
48.089°
Arg. of periapsis
171.5895°
True anomaly
1.07057°
Mean anomaly
0.3319°
Eccentric anomaly
0.63607°
Mean motion
0.4642 °/min
Orbital period
775.53 mins
BSTAR
0
Loading maneuver chart data...
Computing Atmospheric mass density...
Loading historical data...
Loading historical data...
Loading historical data...
Loading historical data...
Loading historical data...
Loading historical data...
Loading historical data...

Documentation

Showing up to 5 results
|